{"data":{"norad_id":65390,"epoch":"2026-05-25T02:32:10.854816Z","epoch_age_seconds":61997,"freshness":"FRESH","line1":"1 65390U 25191M   26145.10568119  .00002983  00000+0  21067-3 0  9990","line2":"2 65390  97.4505  16.4086 0002290  72.5298 287.6180 15.05658518 41760","mean_motion":15.05658518,"eccentricity":0.000229,"inclination_deg":97.4505,"raan_deg":16.4086,"arg_perigee_deg":72.5298,"mean_anomaly_deg":287.618,"bstar":0.00021067,"rev_number":4176,"period_min":95.639215850403,"perigee_km":547.89860059781,"apogee_km":551.07145148574,"semimajor_km":6927.6220260418,"source":"CELESTRAK","updated_at":"2026-05-25T13:38:20.774180Z"}}